This is the latest recevied weather packets stored in our database for station/object MM9SQL. If no packets are shown the sender has not sent any weather packets the latest 10 day(s).
| Time | Temp. | Humidity | Pressure | Rain* | Wind** | Luminosity | Snow |
|---|---|---|---|---|---|---|---|
| 1777793707 | 7.78° C | 84% | 1015.2 hPa | 0 mm | - | - | - |
| 1777792522 | 7.78° C | 84% | 1015.1 hPa | 0 mm | - | - | - |
| 1777789813 | 7.22° C | 85% | 1015 hPa | 0 mm | - | - | - |
| 1777788922 | 7.22° C | 86% | 1014.9 hPa | 0 mm | - | - | - |
| 1777788308 | 6.67° C | 86% | 1014.9 hPa | 0 mm | - | - | - |
| 1777786504 | 6.67° C | 86% | 1015 hPa | 0 mm | - | - | - |
| 1777781405 | 6.67° C | 87% | 1015.2 hPa | 0 mm | - | - | - |
| 1777772407 | 7.22° C | 88% | 1015.8 hPa | 0 mm | - | - | - |
| 1777772106 | 7.22° C | 88% | 1015.8 hPa | 0 mm | - | - | - |
| 1777756203 | 7.78° C | 92% | 1016.5 hPa | 0 mm | - | - | - |
| 1777755612 | 7.78° C | 92% | 1016.5 hPa | 0 mm | - | - | - |
| 1777754406 | 7.78° C | 92% | 1016.6 hPa | 0 mm | - | - | - |
| 1777753822 | 7.78° C | 92% | 1016.6 hPa | 0 mm | - | - | - |
| 1777753209 | 7.78° C | 91% | 1016.6 hPa | 0 mm | - | - | - |
| 1777752929 | 7.78° C | 91% | 1016.5 hPa | 0 mm | - | - | - |
| 1777750503 | 8.33° C | 90% | 1016.2 hPa | 0 mm | - | - | - |
| 1777749003 | 8.33° C | 89% | 1016.1 hPa | 0 mm | - | - | - |
| 1777748706 | 8.33° C | 89% | 1016.1 hPa | 0 mm | - | - | - |
| 1777748105 | 8.33° C | 89% | 1016.1 hPa | 0 mm | - | - | - |
| 1777744504 | 8.89° C | 87% | 1015.7 hPa | 0 mm | - | - | - |
| 1777743605 | 8.89° C | 87% | 1015.4 hPa | 0 mm | - | - | - |
| 1777743303 | 8.89° C | 86% | 1015.3 hPa | 0 mm | - | - | - |
| 1777742117 | 8.89° C | 86% | 1015.4 hPa | 0 mm | - | - | - |
| 1777736403 | 9.44° C | 87% | 1014.9 hPa | 0 mm | - | - | - |
| 1777736103 | 9.44° C | 87% | 1014.9 hPa | 0 mm | - | - | - |
* Rain latest hour (hover to see other rain measurements)
** Current wind speed in m/s (hover to see current wind gust speed)